IBE212 RJGG-RJCC

Flight info

Callsign IBE212
Flight time 1h 22m
Altitude 41000
Route KCC KROBE Y13 SIRAO Y139 NAVER
Aircraft A346/H-SDE2E3FGHIJ3J4J5M1RWXY/LB1D1

Departure

Time 2026-05-06 18:18
Airport Chubu Centrair International Airport (RJGG)

Arrival

Time 2026-05-06 19:41
Airport New Chitose Airport (RJCC)
Time Latitude Longitude Altitude Speed Heading
2026-05-06 18:04 34.87515 136.80685 37 ft 0 kts 84°
2026-05-06 18:07 34.87514 136.80673 37 ft 3 kts 83°
2026-05-06 18:07 34.87511 136.80645 34 ft 3 kts 82°
2026-05-06 18:07 34.87508 136.80618 37 ft 3 kts 88°
2026-05-06 18:08 34.87510 136.80596 33 ft 3 kts 115°
2026-05-06 18:08 34.87506 136.80595 37 ft 3 kts 156°
2026-05-06 18:08 34.87486 136.80599 36 ft 3 kts 175°
2026-05-06 18:08 34.87463 136.80602 37 ft 2 kts 170°
2026-05-06 18:12 34.87425 136.80612 37 ft 32 kts 168°
2026-05-06 18:12 34.87219 136.80661 37 ft 31 kts 169°
2026-05-06 18:12 34.87004 136.80712 37 ft 30 kts 169°
2026-05-06 18:12 34.86852 136.80691 36 ft 21 kts 233°
2026-05-06 18:13 34.86737 136.80583 36 ft 23 kts 187°
2026-05-06 18:13 34.86573 136.80608 37 ft 25 kts 168°
2026-05-06 18:13 34.86398 136.80652 37 ft 27 kts 168°
2026-05-06 18:13 34.86205 136.80701 37 ft 29 kts 168°
2026-05-06 18:14 34.86000 136.80749 36 ft 31 kts 171°
2026-05-06 18:14 34.85786 136.80799 36 ft 32 kts 168°
2026-05-06 18:14 34.85565 136.80853 36 ft 33 kts 168°
2026-05-06 18:14 34.85337 136.80909 36 ft 34 kts 168°
2026-05-06 18:15 34.85102 136.80963 36 ft 35 kts 169°
2026-05-06 18:15 34.84863 136.81018 36 ft 35 kts 169°
2026-05-06 18:15 34.84621 136.81078 35 ft 36 kts 168°
2026-05-06 18:15 34.84402 136.81130 36 ft 22 kts 180°
2026-05-06 18:16 34.84337 136.81062 35 ft 0 kts 246°
2026-05-06 18:16 34.84336 136.81062 35 ft 1 kts 246°
2026-05-06 18:17 34.84330 136.81042 34 ft 5 kts 248°
2026-05-06 18:17 34.84316 136.80981 32 ft 10 kts 266°
2026-05-06 18:17 34.84358 136.80900 31 ft 13 kts 330°
2026-05-06 18:17 34.84382 136.80887 32 ft 5 kts 341°
2026-05-06 18:18 34.84679 136.80809 34 ft 82 kts 349°
2026-05-06 18:18 34.85477 136.80622 32 ft 149 kts 349°
2026-05-06 18:18 34.86654 136.80347 252 ft 185 kts 349°
2026-05-06 18:18 34.87938 136.80048 1078 ft 187 kts 348°
2026-05-06 18:19 34.89177 136.79659 2012 ft 184 kts 344°
2026-05-06 18:19 34.90384 136.79158 2779 ft 184 kts 340°
2026-05-06 18:19 34.91604 136.78590 3403 ft 191 kts 336°
2026-05-06 18:19 34.92865 136.77977 4006 ft 199 kts 336°
2026-05-06 18:20 34.94182 136.77359 4636 ft 208 kts 336°
2026-05-06 18:20 34.95615 136.76775 5188 ft 226 kts 341°
2026-05-06 18:20 34.97193 136.76233 5733 ft 244 kts 341°
2026-05-06 18:20 34.98884 136.75636 6327 ft 263 kts 340°
2026-05-06 18:21 35.00693 136.74963 6939 ft 279 kts 340°
2026-05-06 18:21 35.02567 136.74244 7777 ft 285 kts 340°
2026-05-06 18:21 35.04467 136.73516 8769 ft 288 kts 342°
2026-05-06 18:21 35.06488 136.73325 9729 ft 298 kts
2026-05-06 18:22 35.08408 136.74219 10577 ft 308 kts 32°
2026-05-06 18:22 35.10175 136.75821 11212 ft 324 kts 37°
2026-05-06 18:22 35.12015 136.77614 11757 ft 343 kts 37°
2026-05-06 18:22 35.13904 136.79456 12257 ft 362 kts 37°
2026-05-06 18:23 35.15938 136.81413 12754 ft 381 kts 37°
2026-05-06 18:23 35.18075 136.83449 13272 ft 397 kts 36°
2026-05-06 18:23 35.20286 136.85547 14036 ft 405 kts 36°
2026-05-06 18:23 35.22529 136.87672 14818 ft 409 kts 36°
2026-05-06 18:24 35.24811 136.89777 15638 ft 412 kts 33°
2026-05-06 18:24 35.27218 136.91707 16455 ft 415 kts 29°
2026-05-06 18:24 35.29754 136.93420 17244 ft 417 kts 25°
2026-05-06 18:24 35.32364 136.95003 18023 ft 420 kts 24°
2026-05-06 18:25 35.35016 136.96578 18722 ft 424 kts 24°
2026-05-06 18:25 35.37686 136.98161 19367 ft 428 kts 24°
2026-05-06 18:25 35.40346 136.99744 19949 ft 433 kts 24°
2026-05-06 18:25 35.43077 137.01373 20478 ft 440 kts 24°
2026-05-06 18:26 35.45849 137.03031 21080 ft 445 kts 24°
2026-05-06 18:26 35.48649 137.04711 21739 ft 448 kts 24°
2026-05-06 18:26 35.51457 137.06398 22384 ft 452 kts 24°
2026-05-06 18:26 35.54290 137.08101 23022 ft 455 kts 23°
2026-05-06 18:27 35.57151 137.09821 23637 ft 459 kts 23°
2026-05-06 18:27 35.59056 137.10967 23985 ft 462 kts 23°
2026-05-06 18:27 35.61953 137.12711 24499 ft 466 kts 23°
2026-05-06 18:27 35.64877 137.14472 25035 ft 469 kts 24°
2026-05-06 18:28 35.67817 137.16245 25576 ft 472 kts 24°
2026-05-06 18:28 35.70783 137.18035 26120 ft 476 kts 24°
2026-05-06 18:28 35.73762 137.19839 26646 ft 479 kts 24°
2026-05-06 18:28 35.76776 137.21663 27149 ft 483 kts 24°
2026-05-06 18:29 35.79808 137.23496 27687 ft 487 kts 24°
2026-05-06 18:29 35.82860 137.25346 28200 ft 491 kts 24°
2026-05-06 18:29 35.85932 137.27209 28705 ft 494 kts 24°
2026-05-06 18:29 35.89025 137.29086 29310 ft 495 kts 24°
2026-05-06 18:30 35.92066 137.30935 30119 ft 492 kts 24°
2026-05-06 18:30 35.95130 137.32801 30841 ft 489 kts 24°
2026-05-06 18:30 35.98169 137.34658 31546 ft 486 kts 23°
2026-05-06 18:30 36.01190 137.36503 32230 ft 483 kts 23°
2026-05-06 18:31 36.04202 137.38342 32938 ft 480 kts 23°
2026-05-06 18:31 36.07181 137.40163 33642 ft 477 kts 22°
2026-05-06 18:31 36.10155 137.41980 34296 ft 474 kts 22°
2026-05-06 18:31 36.13110 137.43783 34863 ft 472 kts 22°
2026-05-06 18:32 36.16049 137.45576 35360 ft 471 kts 22°
2026-05-06 18:32 36.18999 137.47377 35810 ft 471 kts 22°
2026-05-06 18:32 36.21940 137.49178 36257 ft 471 kts 22°
2026-05-06 18:32 36.24885 137.50984 36675 ft 471 kts 22°
2026-05-06 18:33 36.27781 137.52761 37078 ft 471 kts 22°
2026-05-06 18:33 36.30719 137.54565 37466 ft 471 kts 22°
2026-05-06 18:33 36.33653 137.56369 37856 ft 470 kts 22°
2026-05-06 18:33 36.36587 137.58175 38228 ft 470 kts 22°
2026-05-06 18:34 36.39514 137.59978 38606 ft 469 kts 23°
2026-05-06 18:34 36.42442 137.61784 38929 ft 469 kts 23°
2026-05-06 18:34 36.45363 137.63590 39171 ft 469 kts 22°
2026-05-06 18:34 36.48294 137.65404 39374 ft 470 kts 22°
2026-05-06 18:35 36.51228 137.67218 39545 ft 472 kts 22°
2026-05-06 18:35 36.54173 137.69064 39708 ft 475 kts 24°
2026-05-06 18:35 36.57064 137.71090 39842 ft 478 kts 27°
2026-05-06 18:35 36.59909 137.73254 40031 ft 480 kts 27°
2026-05-06 18:36 36.62756 137.75464 40197 ft 482 kts 28°
2026-05-06 18:36 36.65573 137.77661 40459 ft 484 kts 28°
2026-05-06 18:36 36.68436 137.79900 40659 ft 486 kts 27°
2026-05-06 18:36 36.71311 137.82143 40822 ft 488 kts 27°
2026-05-06 18:37 36.74198 137.84391 40944 ft 490 kts 27°
2026-05-06 18:37 36.77104 137.86656 41057 ft 492 kts 27°
2026-05-06 18:37 36.82946 137.91216 41083 ft 494 kts 27°
2026-05-06 18:38 36.88767 137.95770 41091 ft 494 kts 27°
2026-05-06 18:38 36.94594 138.00333 41087 ft 494 kts 27°
2026-05-06 18:39 37.00422 138.04905 41081 ft 494 kts 27°
2026-05-06 18:40 37.09148 138.11770 41077 ft 494 kts 27°
2026-05-06 18:40 37.14979 138.16364 41070 ft 494 kts 27°
2026-05-06 18:41 37.20794 138.20958 41070 ft 494 kts 27°
2026-05-06 18:41 37.26617 138.25563 41066 ft 494 kts 27°
2026-05-06 18:42 37.32394 138.30142 41076 ft 494 kts 27°
2026-05-06 18:42 37.38203 138.34755 41062 ft 493 kts 27°
2026-05-06 18:43 37.44017 138.39379 41062 ft 493 kts 27°
2026-05-06 18:43 37.49827 138.44012 41066 ft 493 kts 27°
2026-05-06 18:44 37.55628 138.48642 41061 ft 493 kts 27°
2026-05-06 18:44 37.61435 138.53288 41062 ft 493 kts 27°
2026-05-06 18:45 37.67223 138.57927 41059 ft 493 kts 27°
2026-05-06 18:45 37.73013 138.62575 41053 ft 493 kts 27°
2026-05-06 18:46 37.78800 138.67231 41050 ft 493 kts 27°
2026-05-06 18:46 37.84550 138.71865 41050 ft 493 kts 27°
2026-05-06 18:47 37.90331 138.76536 41069 ft 493 kts 27°
2026-05-06 18:47 37.96119 138.81220 41048 ft 493 kts 27°
2026-05-06 18:48 38.01901 138.85905 41043 ft 493 kts 27°
2026-05-06 18:48 38.07680 138.90602 41053 ft 493 kts 26°
2026-05-06 18:49 38.13455 138.95301 41047 ft 493 kts 26°
2026-05-06 18:49 38.19232 139.00004 41047 ft 493 kts 26°
2026-05-06 18:50 38.25012 139.04724 41045 ft 493 kts 26°
2026-05-06 18:50 38.30750 139.09417 41045 ft 493 kts 26°
2026-05-06 18:51 38.36529 139.14153 41060 ft 493 kts 26°
2026-05-06 18:51 38.42299 139.18892 41047 ft 493 kts 26°
2026-05-06 18:52 38.48071 139.23641 41050 ft 493 kts 26°
2026-05-06 18:52 38.53851 139.28406 41051 ft 494 kts 26°
2026-05-06 18:53 38.59620 139.33170 41039 ft 494 kts 26°
2026-05-06 18:53 38.65359 139.37918 41041 ft 494 kts 26°
2026-05-06 18:54 38.71127 139.42703 41049 ft 493 kts 26°
2026-05-06 18:54 38.76882 139.47484 41056 ft 493 kts 26°
2026-05-06 18:55 38.82655 139.52289 41052 ft 494 kts 26°
2026-05-06 18:55 38.88419 139.57098 41045 ft 494 kts 26°
2026-05-06 18:56 38.94180 139.61913 41044 ft 494 kts 26°
2026-05-06 18:56 38.99953 139.66701 41056 ft 492 kts 24°
2026-05-06 18:57 39.05893 139.70801 41042 ft 484 kts 17°
2026-05-06 18:57 39.12119 139.74227 41040 ft 483 kts 15°
2026-05-06 18:58 39.18289 139.77516 41042 ft 483 kts 15°
2026-05-06 18:58 39.24489 139.80845 41038 ft 483 kts 15°
2026-05-06 18:59 39.30695 139.84195 41041 ft 483 kts 15°
2026-05-06 18:59 39.36900 139.87558 41052 ft 483 kts 15°
2026-05-06 19:00 39.43100 139.90921 41045 ft 483 kts 15°
2026-05-06 19:00 39.49309 139.94295 41048 ft 483 kts 15°
2026-05-06 19:01 39.55473 139.97655 41052 ft 483 kts 14°
2026-05-06 19:01 39.61667 140.01034 41045 ft 482 kts 14°
2026-05-06 19:02 39.67847 140.04414 41040 ft 482 kts 14°
2026-05-06 19:02 39.74008 140.07954 41046 ft 484 kts 17°
2026-05-06 19:03 39.80102 140.11712 41041 ft 484 kts 17°
2026-05-06 19:03 39.86195 140.15490 41048 ft 485 kts 17°
2026-05-06 19:04 39.92256 140.19249 41055 ft 485 kts 17°
2026-05-06 19:04 39.98359 140.23034 41037 ft 485 kts 17°
2026-05-06 19:05 40.04458 140.26823 41047 ft 486 kts 17°
2026-05-06 19:05 40.10570 140.30631 40785 ft 485 kts 17°
2026-05-06 19:05 40.13600 140.32524 40539 ft 481 kts 17°
2026-05-06 19:06 40.16614 140.34408 40291 ft 478 kts 17°
2026-05-06 19:06 40.19602 140.36277 40045 ft 474 kts 17°
2026-05-06 19:06 40.22568 140.38133 39799 ft 471 kts 16°
2026-05-06 19:06 40.25515 140.39976 39565 ft 469 kts 16°
2026-05-06 19:07 40.28455 140.41817 39329 ft 466 kts 16°
2026-05-06 19:07 40.30388 140.43029 39169 ft 465 kts 16°
2026-05-06 19:07 40.34251 140.45454 38882 ft 463 kts 16°
2026-05-06 19:07 40.37152 140.47276 38630 ft 462 kts 16°
2026-05-06 19:08 40.40061 140.49103 38359 ft 462 kts 16°
2026-05-06 19:08 40.42973 140.50935 38101 ft 466 kts 16°
2026-05-06 19:08 40.45892 140.52770 37833 ft 466 kts 16°
2026-05-06 19:08 40.48827 140.54620 37554 ft 467 kts 17°
2026-05-06 19:09 40.51763 140.56473 37281 ft 468 kts 17°
2026-05-06 19:09 40.54708 140.58334 37008 ft 470 kts 17°
2026-05-06 19:09 40.57657 140.60199 36737 ft 471 kts 17°
2026-05-06 19:09 40.60618 140.62074 36490 ft 473 kts 17°
2026-05-06 19:10 40.63586 140.63958 36216 ft 474 kts 17°
2026-05-06 19:10 40.66519 140.65821 35963 ft 475 kts 17°
2026-05-06 19:10 40.69509 140.67721 35733 ft 477 kts 17°
2026-05-06 19:10 40.72503 140.69599 35488 ft 477 kts 15°
2026-05-06 19:11 40.75553 140.71310 35240 ft 475 kts 13°
2026-05-06 19:11 40.78644 140.72868 35023 ft 475 kts 12°
2026-05-06 19:11 40.81752 140.74385 34799 ft 476 kts 12°
2026-05-06 19:11 40.84863 140.75896 34560 ft 476 kts 12°
2026-05-06 19:12 40.87978 140.77415 34324 ft 477 kts 12°
2026-05-06 19:12 40.91099 140.78944 34089 ft 479 kts 12°
2026-05-06 19:12 40.94232 140.80489 33835 ft 480 kts 12°
2026-05-06 19:12 40.97331 140.82022 33579 ft 483 kts 12°
2026-05-06 19:13 41.00479 140.83580 33307 ft 484 kts 12°
2026-05-06 19:13 41.03649 140.85152 33056 ft 486 kts 12°
2026-05-06 19:13 41.06828 140.86729 32792 ft 487 kts 13°
2026-05-06 19:13 41.10002 140.88307 32529 ft 488 kts 13°
2026-05-06 19:14 41.13189 140.89892 32271 ft 489 kts 13°
2026-05-06 19:14 41.16378 140.91480 32018 ft 490 kts 13°
2026-05-06 19:14 41.18492 140.92533 31847 ft 491 kts 13°
2026-05-06 19:14 41.21692 140.94130 31627 ft 491 kts 13°
2026-05-06 19:15 41.25951 140.96258 31290 ft 493 kts 13°
2026-05-06 19:15 41.29162 140.97865 31039 ft 493 kts 14°
2026-05-06 19:15 41.31331 140.98950 30874 ft 494 kts 14°
2026-05-06 19:15 41.34555 141.00541 30633 ft 495 kts 13°
2026-05-06 19:16 41.37784 141.02123 30395 ft 495 kts 13°
2026-05-06 19:16 41.41025 141.03713 30180 ft 496 kts 14°
2026-05-06 19:16 41.44265 141.05308 29921 ft 497 kts 14°
2026-05-06 19:16 41.47513 141.06910 29642 ft 497 kts 14°
2026-05-06 19:17 41.50756 141.08509 29367 ft 498 kts 14°
2026-05-06 19:17 41.54011 141.10117 29101 ft 499 kts 14°
2026-05-06 19:17 41.57283 141.11736 28843 ft 500 kts 14°
2026-05-06 19:17 41.60506 141.13334 28568 ft 500 kts 14°
2026-05-06 19:18 41.63771 141.14956 28309 ft 500 kts 14°
2026-05-06 19:18 41.67021 141.16571 28044 ft 498 kts 14°
2026-05-06 19:18 41.70262 141.18188 27781 ft 496 kts 14°
2026-05-06 19:18 41.73493 141.19818 27518 ft 494 kts 14°
2026-05-06 19:19 41.76699 141.21442 27270 ft 493 kts 15°
2026-05-06 19:19 41.79907 141.23069 27007 ft 491 kts 15°
2026-05-06 19:19 41.83100 141.24692 26735 ft 489 kts 14°
2026-05-06 19:19 41.86277 141.26306 26319 ft 486 kts 14°
2026-05-06 19:20 41.89427 141.27906 25869 ft 482 kts 14°
2026-05-06 19:20 41.92553 141.29501 25425 ft 479 kts 15°
2026-05-06 19:20 41.95577 141.31437 24965 ft 481 kts 24°
2026-05-06 19:20 41.98376 141.33924 24520 ft 483 kts 32°
2026-05-06 19:21 42.00921 141.36888 24093 ft 482 kts 38°
2026-05-06 19:21 42.03331 141.40004 23640 ft 479 kts 40°
2026-05-06 19:21 42.05702 141.43134 23129 ft 474 kts 40°
2026-05-06 19:21 42.08024 141.46173 22662 ft 469 kts 40°
2026-05-06 19:22 42.10378 141.49190 22165 ft 463 kts 37°
2026-05-06 19:22 42.12968 141.51670 21699 ft 451 kts 24°
2026-05-06 19:22 42.15806 141.53321 21254 ft 438 kts 12°
2026-05-06 19:22 42.18730 141.54273 20834 ft 429 kts
2026-05-06 19:23 42.21650 141.55035 20379 ft 425 kts
2026-05-06 19:23 42.24548 141.55780 19938 ft 423 kts
2026-05-06 19:23 42.27427 141.56551 19504 ft 420 kts
2026-05-06 19:23 42.30280 141.57347 19044 ft 419 kts
2026-05-06 19:24 42.33045 141.58696 18599 ft 426 kts 24°
2026-05-06 19:24 42.35461 141.61036 18168 ft 430 kts 41°
2026-05-06 19:24 42.37427 141.64090 17715 ft 429 kts 50°
2026-05-06 19:24 42.39244 141.67285 17280 ft 427 kts 51°
2026-05-06 19:25 42.41015 141.70439 16848 ft 424 kts 51°
2026-05-06 19:25 42.42810 141.73604 16420 ft 421 kts 50°
2026-05-06 19:25 42.44603 141.76730 15997 ft 418 kts 50°
2026-05-06 19:25 42.46390 141.79822 15572 ft 416 kts 50°
2026-05-06 19:26 42.48172 141.82897 15133 ft 413 kts 50°
2026-05-06 19:26 42.49949 141.85961 14722 ft 411 kts 50°
2026-05-06 19:26 42.51706 141.88996 14314 ft 408 kts 50°
2026-05-06 19:26 42.53485 141.91990 13865 ft 406 kts 45°
2026-05-06 19:27 42.55694 141.94196 13364 ft 395 kts 20°
2026-05-06 19:27 42.58298 141.95015 12929 ft 379 kts 356°
2026-05-06 19:27 42.60853 141.94637 12660 ft 361 kts 344°
2026-05-06 19:27 42.63278 141.94036 12542 ft 347 kts 343°
2026-05-06 19:28 42.65611 141.93466 12412 ft 334 kts 343°
2026-05-06 19:28 42.67865 141.92940 12307 ft 322 kts 344°
2026-05-06 19:28 42.70031 141.92454 12200 ft 310 kts 344°
2026-05-06 19:28 42.72128 141.91995 12092 ft 299 kts 344°
2026-05-06 19:29 42.74148 141.91556 12004 ft 294 kts 344°
2026-05-06 19:29 42.76207 141.91100 12005 ft 303 kts 344°
2026-05-06 19:29 42.78294 141.90643 12023 ft 305 kts 344°
2026-05-06 19:29 42.80384 141.90196 11974 ft 301 kts 343°
2026-05-06 19:30 42.82455 141.89754 11617 ft 300 kts 343°
2026-05-06 19:30 42.84511 141.89308 11249 ft 297 kts 343°
2026-05-06 19:30 42.86539 141.88869 10783 ft 293 kts 343°
2026-05-06 19:30 42.88539 141.88438 10342 ft 288 kts 343°
2026-05-06 19:31 42.90502 141.88013 9947 ft 283 kts 343°
2026-05-06 19:31 42.92440 141.87591 9446 ft 281 kts 343°
2026-05-06 19:31 42.96246 141.86767 8422 ft 277 kts 343°
2026-05-06 19:32 42.98163 141.86351 7905 ft 275 kts 343°
2026-05-06 19:32 43.00046 141.85942 7429 ft 273 kts 343°
2026-05-06 19:32 43.01914 141.85537 7123 ft 271 kts 343°
2026-05-06 19:32 43.03784 141.85129 6949 ft 270 kts 343°
2026-05-06 19:33 43.05623 141.84691 6657 ft 264 kts 337°
2026-05-06 19:33 43.07114 141.83457 6271 ft 244 kts 301°
2026-05-06 19:33 43.07669 141.81379 5915 ft 229 kts 265°
2026-05-06 19:33 43.07212 141.79334 5593 ft 226 kts 245°
2026-05-06 19:34 43.06535 141.77384 5211 ft 227 kts 245°
2026-05-06 19:34 43.05887 141.75410 4881 ft 227 kts 246°
2026-05-06 19:34 43.05270 141.73450 4580 ft 227 kts 246°
2026-05-06 19:34 43.04643 141.71434 4229 ft 227 kts 246°
2026-05-06 19:35 43.04023 141.69482 3981 ft 224 kts 244°
2026-05-06 19:35 43.03374 141.67561 3760 ft 220 kts 237°
2026-05-06 19:35 43.02288 141.66167 3481 ft 215 kts 205°
2026-05-06 19:35 43.00872 141.65610 3166 ft 211 kts 187°
2026-05-06 19:36 42.99427 141.65572 2963 ft 206 kts 178°
2026-05-06 19:36 42.98012 141.65770 2766 ft 203 kts 174°
2026-05-06 19:36 42.96624 141.66025 2545 ft 199 kts 173°
2026-05-06 19:36 42.95270 141.66278 2359 ft 195 kts 173°
2026-05-06 19:37 42.93937 141.66521 2188 ft 191 kts 174°
2026-05-06 19:37 42.92642 141.66749 2088 ft 183 kts 174°
2026-05-06 19:37 42.91442 141.66959 2055 ft 163 kts 174°
2026-05-06 19:37 42.90351 141.67150 2043 ft 156 kts 174°
2026-05-06 19:38 42.89277 141.67339 2060 ft 156 kts 174°
2026-05-06 19:38 42.88203 141.67527 1961 ft 154 kts 174°
2026-05-06 19:38 42.87188 141.67705 1742 ft 144 kts 173°
2026-05-06 19:38 42.86213 141.67877 1540 ft 140 kts 173°
2026-05-06 19:39 42.85240 141.68049 1369 ft 141 kts 173°
2026-05-06 19:39 42.84273 141.68221 1173 ft 140 kts 173°
2026-05-06 19:39 42.83306 141.68390 998 ft 140 kts 172°
2026-05-06 19:39 42.82346 141.68559 792 ft 139 kts 171°
2026-05-06 19:40 42.81388 141.68730 616 ft 138 kts 171°
2026-05-06 19:40 42.80433 141.68899 420 ft 138 kts 172°
2026-05-06 19:40 42.79480 141.69067 253 ft 137 kts 172°
2026-05-06 19:40 42.78549 141.69231 90 ft 133 kts 172°
2026-05-06 19:41 42.77774 141.69369 68 ft 82 kts 173°
2026-05-06 19:41 42.77428 141.69419 71 ft 23 kts 183°
2026-05-06 19:41 42.77327 141.69400 72 ft 14 kts 192°
2026-05-06 19:41 42.77283 141.69382 83 ft 0 kts 198°
2026-05-06 19:43 42.77277 141.69379 74 ft 2 kts 198°
2026-05-06 19:43 42.77249 141.69366 82 ft 6 kts 200°
2026-05-06 19:44 42.77196 141.69337 72 ft 10 kts 201°
2026-05-06 19:44 42.77122 141.69292 73 ft 11 kts 213°
2026-05-06 19:44 42.77078 141.69194 83 ft 14 kts 253°
2026-05-06 19:44 42.77058 141.69050 75 ft 18 kts 261°
2026-05-06 19:45 42.77110 141.68901 70 ft 19 kts 334°
2026-05-06 19:45 42.77246 141.68862 68 ft 22 kts 352°
2026-05-06 19:45 42.77405 141.68835 68 ft 23 kts 350°
2026-05-06 19:45 42.77523 141.68705 69 ft 22 kts 304°
2026-05-06 19:46 42.77659 141.68609 69 ft 24 kts 352°
2026-05-06 19:46 42.77832 141.68575 71 ft 27 kts 352°
2026-05-06 19:46 42.78023 141.68541 68 ft 28 kts 353°
2026-05-06 19:46 42.78226 141.68506 67 ft 30 kts 353°
2026-05-06 19:47 42.78432 141.68471 70 ft 29 kts 353°
2026-05-06 19:47 42.78634 141.68436 69 ft 29 kts 353°
2026-05-06 19:47 42.78818 141.68402 69 ft 23 kts 347°
2026-05-06 19:47 42.78960 141.68321 68 ft 21 kts 329°
2026-05-06 19:48 42.79049 141.68204 68 ft 19 kts 305°
2026-05-06 19:48 42.79108 141.68050 73 ft 19 kts 290°
2026-05-06 19:48 42.79129 141.67957 68 ft 15 kts 280°